Find Starlink 32533

NORAD ID: 61706 Int'l Des: 2024-195 Owner: SPXS Country: US Constellation: starlink operational
LEOCIRCULAR

Live-Position

3D-Globus wird geladen...

Über Starlink 32533

Beschreibung wird geladen...

Nächste Überflüge

Passes for default location (London). Set your location on the main map for personalized predictions.

Höhenverlauf

Loading altitude history...

Zweizeiliger Elementsatz

1 61706U 24195V 26122.40395030 -.00000179 00000-0 58514-5 0 9994
2 61706 53.1616 265.2733 0001203 68.9862 291.1269 15.34382398 85411
Epoch: 2. Mai 2026 • Age: 12 hours

Aktueller Status

Höhe 464.0 km
Geschwindigkeit 7.64 km/s
Subsatellitenpunkt -0.27°S, 98.91°W
Startdatum 30. Okt. 2024
Alter 1.5 years
Typ internet

Technische Details

Klassifizierung Payload
Masse 730.00 kg
Trockenmasse 700.00 kg
Gesamtmasse 730.00 kg
Länge 0.30 m
Durchmesser 4.10 m
Spannweite 29.00 m
Form Box + pan
Hersteller SPXS
Bus-Typ Starlink V2M
Phasenstatus In Orbit
Besitzer/Staat SPXS/US

Most Searched